LUJ301 EGPH-EDDK

Flight info

Callsign LUJ301
Flight time 2h 17m
Altitude 23000
Route TLA Y96 OTBUN DCT GODOS DCT BERGI DCT PAM L620 SONEB Z841 GETNI T858 KOPAG
Aircraft PC12/L-SBDFGRWY/S

Departure

Time 2026-05-06 12:08
Airport Edinburgh Airport (EGPH)

Arrival

Time 2026-05-06 14:26
Airport Cologne Bonn Airport (EDDK)
Time Latitude Longitude Altitude Speed Heading
2026-05-06 11:39 55.95024 -3.34831 113 ft 0 kts 28°
2026-05-06 11:39 55.95024 -3.34832 113 ft 0 kts 28°
2026-05-06 11:47 55.95014 -3.34842 112 ft 2 kts 29°
2026-05-06 11:47 55.95000 -3.34857 111 ft 3 kts 34°
2026-05-06 11:47 55.94989 -3.34872 112 ft 2 kts 39°
2026-05-06 11:48 55.94981 -3.34885 111 ft 2 kts 47°
2026-05-06 11:48 55.94975 -3.34901 111 ft 2 kts 62°
2026-05-06 11:48 55.94972 -3.34920 112 ft 2 kts 89°
2026-05-06 11:48 55.94974 -3.34939 111 ft 2 kts 113°
2026-05-06 11:49 55.94976 -3.34947 112 ft 0 kts 117°
2026-05-06 11:52 55.94976 -3.34948 112 ft 0 kts 117°
2026-05-06 11:56 55.94970 -3.34928 113 ft 9 kts 119°
2026-05-06 11:56 55.94920 -3.34830 113 ft 11 kts 180°
2026-05-06 11:57 55.94843 -3.34902 113 ft 13 kts 220°
2026-05-06 11:57 55.94858 -3.35054 113 ft 14 kts 300°
2026-05-06 11:57 55.94903 -3.35203 113 ft 11 kts 298°
2026-05-06 11:57 55.94939 -3.35321 113 ft 17 kts 299°
2026-05-06 11:58 55.95009 -3.35545 112 ft 24 kts 299°
2026-05-06 11:58 55.95090 -3.35788 113 ft 20 kts 311°
2026-05-06 11:58 55.95170 -3.35949 112 ft 19 kts 329°
2026-05-06 11:58 55.95197 -3.36097 111 ft 16 kts 238°
2026-05-06 11:59 55.95133 -3.36285 111 ft 19 kts 239°
2026-05-06 11:59 55.95060 -3.36499 112 ft 21 kts 238°
2026-05-06 11:59 55.94980 -3.36734 112 ft 23 kts 238°
2026-05-06 11:59 55.94896 -3.36984 112 ft 24 kts 238°
2026-05-06 12:00 55.94806 -3.37248 112 ft 25 kts 239°
2026-05-06 12:00 55.94714 -3.37524 112 ft 26 kts 239°
2026-05-06 12:00 55.94618 -3.37806 112 ft 27 kts 238°
2026-05-06 12:00 55.94520 -3.38093 112 ft 27 kts 239°
2026-05-06 12:01 55.94421 -3.38384 112 ft 28 kts 239°
2026-05-06 12:01 55.94322 -3.38678 112 ft 28 kts 239°
2026-05-06 12:01 55.94284 -3.38789 112 ft 0 kts 239°
2026-05-06 12:06 55.94282 -3.38850 112 ft 14 kts 301°
2026-05-06 12:06 55.94383 -3.38969 109 ft 14 kts 334°
2026-05-06 12:07 55.94436 -3.38912 110 ft 0 kts 59°
2026-05-06 12:07 55.94436 -3.38913 110 ft 0 kts 59°
2026-05-06 12:07 55.94481 -3.38780 110 ft 38 kts 59°
2026-05-06 12:08 55.94708 -3.38097 114 ft 83 kts 62°
2026-05-06 12:08 55.95043 -3.37132 271 ft 99 kts 59°
2026-05-06 12:08 55.95405 -3.36048 629 ft 103 kts 63°
2026-05-06 12:08 55.95772 -3.34825 852 ft 127 kts 63°
2026-05-06 12:09 55.96157 -3.33255 1334 ft 134 kts 79°
2026-05-06 12:09 55.96501 -3.31736 1858 ft 144 kts 51°
2026-05-06 12:09 55.97292 -3.30565 2361 ft 152 kts 43°
2026-05-06 12:09 55.98155 -3.29533 2954 ft 155 kts 21°
2026-05-06 12:10 55.99184 -3.28910 3365 ft 157 kts 28°
2026-05-06 12:10 56.00076 -3.27774 3818 ft 158 kts 43°
2026-05-06 12:10 56.00896 -3.26467 4274 ft 159 kts 44°
2026-05-06 12:10 56.01718 -3.25134 4725 ft 160 kts 43°
2026-05-06 12:11 56.02545 -3.23798 5167 ft 160 kts 42°
2026-05-06 12:11 56.03376 -3.22456 5607 ft 162 kts 41°
2026-05-06 12:11 56.04211 -3.21101 6044 ft 163 kts 42°
2026-05-06 12:11 56.04895 -3.19474 6476 ft 166 kts 60°
2026-05-06 12:12 56.05279 -3.17518 6886 ft 168 kts 78°
2026-05-06 12:12 56.05315 -3.15419 7287 ft 170 kts 97°
2026-05-06 12:12 56.04993 -3.13409 7696 ft 172 kts 115°
2026-05-06 12:12 56.04329 -3.11635 8127 ft 172 kts 134°
2026-05-06 12:13 56.03414 -3.10252 8531 ft 173 kts 143°
2026-05-06 12:13 56.02465 -3.08922 8962 ft 174 kts 142°
2026-05-06 12:13 56.01510 -3.07577 9397 ft 175 kts 143°
2026-05-06 12:13 56.00547 -3.06229 9826 ft 176 kts 143°
2026-05-06 12:14 55.99577 -3.04873 10218 ft 177 kts 143°
2026-05-06 12:14 55.98604 -3.03513 10597 ft 179 kts 143°
2026-05-06 12:14 55.97621 -3.02140 10973 ft 180 kts 143°
2026-05-06 12:14 55.96624 -3.00771 11341 ft 181 kts 148°
2026-05-06 12:15 55.95457 -2.99982 11703 ft 180 kts 174°
2026-05-06 12:15 55.94228 -3.00114 12085 ft 177 kts 199°
2026-05-06 12:15 55.93095 -3.00955 12460 ft 177 kts 208°
2026-05-06 12:15 55.91972 -3.01859 12871 ft 177 kts 208°
2026-05-06 12:16 55.90846 -3.02762 13268 ft 178 kts 208°
2026-05-06 12:16 55.89727 -3.03660 13667 ft 179 kts 208°
2026-05-06 12:16 55.88592 -3.04572 14036 ft 179 kts 209°
2026-05-06 12:16 55.87454 -3.05486 14391 ft 180 kts 209°
2026-05-06 12:17 55.86308 -3.06405 14753 ft 181 kts 209°
2026-05-06 12:17 55.85161 -3.07324 15107 ft 181 kts 209°
2026-05-06 12:17 55.84007 -3.08248 15455 ft 182 kts 209°
2026-05-06 12:17 55.82846 -3.09178 15809 ft 183 kts 209°
2026-05-06 12:18 55.81683 -3.10108 16143 ft 184 kts 209°
2026-05-06 12:18 55.80516 -3.11041 16495 ft 184 kts 209°
2026-05-06 12:18 55.79344 -3.11977 16839 ft 185 kts 210°
2026-05-06 12:18 55.78167 -3.12917 17181 ft 186 kts 210°
2026-05-06 12:19 55.77002 -3.13846 17507 ft 186 kts 210°
2026-05-06 12:19 55.75815 -3.14792 17844 ft 187 kts 210°
2026-05-06 12:19 55.74625 -3.15740 18181 ft 188 kts 210°
2026-05-06 12:19 55.73430 -3.16691 18491 ft 189 kts 210°
2026-05-06 12:20 55.72229 -3.17647 18787 ft 189 kts 210°
2026-05-06 12:20 55.71022 -3.18606 19083 ft 190 kts 210°
2026-05-06 12:20 55.69809 -3.19570 19361 ft 191 kts 210°
2026-05-06 12:20 55.68589 -3.20538 19641 ft 192 kts 210°
2026-05-06 12:21 55.67370 -3.21505 19914 ft 193 kts 210°
2026-05-06 12:21 55.66137 -3.22482 20187 ft 194 kts 210°
2026-05-06 12:21 55.64905 -3.23458 20459 ft 195 kts 210°
2026-05-06 12:21 55.63665 -3.24439 20729 ft 196 kts 210°
2026-05-06 12:22 55.62435 -3.25413 20987 ft 197 kts 210°
2026-05-06 12:22 55.61184 -3.26401 21217 ft 197 kts 210°
2026-05-06 12:22 55.59934 -3.27388 21452 ft 197 kts 210°
2026-05-06 12:22 55.58676 -3.28382 21690 ft 199 kts 210°
2026-05-06 12:23 55.57411 -3.29379 21932 ft 199 kts 210°
2026-05-06 12:23 55.56144 -3.30378 22183 ft 200 kts 210°
2026-05-06 12:23 55.54871 -3.31381 22431 ft 201 kts 210°
2026-05-06 12:23 55.53571 -3.32313 22654 ft 205 kts 200°
2026-05-06 12:24 55.52117 -3.32432 22916 ft 216 kts 177°
2026-05-06 12:24 55.50675 -3.31477 23048 ft 233 kts 151°
2026-05-06 12:24 55.49510 -3.29342 23060 ft 253 kts 123°
2026-05-06 12:24 55.48938 -3.26343 23058 ft 264 kts 102°
2026-05-06 12:25 55.48605 -3.23089 23055 ft 272 kts 100°
2026-05-06 12:25 55.48284 -3.19770 23059 ft 277 kts 101°
2026-05-06 12:25 55.47925 -3.16397 23058 ft 282 kts 102°
2026-05-06 12:25 55.47552 -3.12994 23058 ft 284 kts 102°
2026-05-06 12:26 55.47180 -3.09549 23056 ft 286 kts 101°
2026-05-06 12:26 55.46818 -3.06149 23055 ft 287 kts 101°
2026-05-06 12:26 55.46444 -3.02673 23056 ft 288 kts 102°
2026-05-06 12:26 55.45939 -2.99268 23052 ft 287 kts 114°
2026-05-06 12:27 55.45024 -2.96162 23054 ft 286 kts 122°
2026-05-06 12:27 55.44043 -2.93107 23052 ft 286 kts 122°
2026-05-06 12:27 55.43069 -2.90049 23051 ft 287 kts 122°
2026-05-06 12:27 55.42094 -2.86981 23053 ft 287 kts 122°
2026-05-06 12:28 55.41118 -2.83916 23053 ft 287 kts 122°
2026-05-06 12:28 55.40136 -2.80844 23053 ft 288 kts 122°
2026-05-06 12:28 55.39152 -2.77771 23050 ft 288 kts 122°
2026-05-06 12:28 55.38171 -2.74704 23052 ft 288 kts 122°
2026-05-06 12:29 55.37187 -2.71636 23055 ft 288 kts 122°
2026-05-06 12:29 55.36204 -2.68573 23052 ft 288 kts 122°
2026-05-06 12:29 55.35219 -2.65506 23054 ft 288 kts 122°
2026-05-06 12:29 55.34232 -2.62439 23051 ft 288 kts 122°
2026-05-06 12:30 55.33246 -2.59375 23053 ft 288 kts 122°
2026-05-06 12:30 55.32257 -2.56307 23048 ft 288 kts 122°
2026-05-06 12:30 55.31280 -2.53284 23051 ft 288 kts 122°
2026-05-06 12:30 55.30278 -2.50184 23050 ft 288 kts 122°
2026-05-06 12:31 55.29301 -2.47163 23052 ft 288 kts 122°
2026-05-06 12:31 55.28309 -2.44102 23046 ft 288 kts 122°
2026-05-06 12:31 55.27369 -2.41010 23047 ft 287 kts 120°
2026-05-06 12:31 55.26422 -2.37933 23050 ft 287 kts 121°
2026-05-06 12:32 55.25453 -2.34845 23048 ft 288 kts 121°
2026-05-06 12:32 55.24501 -2.31758 23047 ft 288 kts 121°
2026-05-06 12:32 55.23553 -2.28662 23046 ft 288 kts 121°
2026-05-06 12:32 55.22603 -2.25579 23047 ft 288 kts 121°
2026-05-06 12:33 55.21649 -2.22494 23046 ft 287 kts 121°
2026-05-06 12:33 55.20695 -2.19415 23051 ft 287 kts 121°
2026-05-06 12:33 55.19743 -2.16341 23050 ft 287 kts 121°
2026-05-06 12:33 55.18789 -2.13262 23051 ft 287 kts 121°
2026-05-06 12:34 55.18156 -2.11225 23061 ft 288 kts 121°
2026-05-06 12:34 55.17202 -2.08153 23064 ft 287 kts 121°
2026-05-06 12:34 55.16247 -2.05084 23063 ft 287 kts 121°
2026-05-06 12:34 55.14982 -2.01026 23061 ft 287 kts 121°
2026-05-06 12:35 55.14338 -1.98961 23060 ft 287 kts 121°
2026-05-06 12:35 55.13382 -1.95902 23066 ft 286 kts 121°
2026-05-06 12:35 55.12443 -1.92900 23067 ft 286 kts 121°
2026-05-06 12:35 55.11470 -1.89792 23061 ft 286 kts 121°
2026-05-06 12:36 55.10533 -1.86804 23064 ft 286 kts 121°
2026-05-06 12:36 55.09571 -1.83738 23068 ft 286 kts 121°
2026-05-06 12:36 55.08613 -1.80693 23060 ft 286 kts 121°
2026-05-06 12:36 55.07658 -1.77656 23066 ft 286 kts 121°
2026-05-06 12:37 55.06700 -1.74617 23064 ft 286 kts 121°
2026-05-06 12:37 55.05740 -1.71575 23067 ft 285 kts 121°
2026-05-06 12:37 55.04790 -1.68566 23071 ft 285 kts 121°
2026-05-06 12:37 55.03822 -1.65507 23072 ft 286 kts 121°
2026-05-06 12:38 55.02858 -1.62464 23068 ft 288 kts 121°
2026-05-06 12:38 55.01888 -1.59407 23069 ft 289 kts 121°
2026-05-06 12:38 55.00914 -1.56340 23069 ft 289 kts 121°
2026-05-06 12:38 54.99950 -1.53308 23063 ft 290 kts 121°
2026-05-06 12:39 54.98973 -1.50236 23068 ft 290 kts 121°
2026-05-06 12:39 54.97995 -1.47169 23069 ft 290 kts 121°
2026-05-06 12:39 54.97013 -1.44093 23073 ft 290 kts 121°
2026-05-06 12:39 54.96033 -1.41026 23069 ft 290 kts 121°
2026-05-06 12:40 54.95052 -1.37961 23071 ft 290 kts 121°
2026-05-06 12:40 54.94068 -1.34889 23077 ft 290 kts 121°
2026-05-06 12:40 54.93088 -1.31833 23075 ft 290 kts 121°
2026-05-06 12:40 54.92103 -1.28767 23071 ft 290 kts 121°
2026-05-06 12:41 54.91122 -1.25715 23070 ft 289 kts 121°
2026-05-06 12:41 54.90140 -1.22667 23078 ft 289 kts 122°
2026-05-06 12:41 54.89155 -1.19612 23070 ft 289 kts 122°
2026-05-06 12:41 54.88173 -1.16569 23075 ft 289 kts 122°
2026-05-06 12:42 54.87201 -1.13562 23072 ft 289 kts 122°
2026-05-06 12:42 54.86217 -1.10523 23077 ft 289 kts 122°
2026-05-06 12:42 54.85233 -1.07487 23075 ft 289 kts 122°
2026-05-06 12:42 54.84247 -1.04446 23066 ft 289 kts 122°
2026-05-06 12:43 54.83260 -1.01410 23070 ft 289 kts 122°
2026-05-06 12:43 54.82273 -0.98374 23069 ft 288 kts 122°
2026-05-06 12:43 54.81288 -0.95350 23070 ft 288 kts 122°
2026-05-06 12:43 54.80300 -0.92321 23070 ft 288 kts 122°
2026-05-06 12:44 54.79311 -0.89291 23074 ft 288 kts 122°
2026-05-06 12:44 54.78322 -0.86265 23079 ft 288 kts 122°
2026-05-06 12:44 54.77333 -0.83242 23075 ft 288 kts 122°
2026-05-06 12:44 54.76355 -0.80260 23077 ft 288 kts 122°
2026-05-06 12:45 54.75363 -0.77238 23070 ft 288 kts 122°
2026-05-06 12:45 54.74373 -0.74224 23074 ft 288 kts 122°
2026-05-06 12:45 54.72389 -0.68194 23071 ft 288 kts 122°
2026-05-06 12:46 54.71397 -0.65188 23071 ft 288 kts 122°
2026-05-06 12:46 54.70406 -0.62185 23071 ft 288 kts 122°
2026-05-06 12:46 54.69412 -0.59180 23071 ft 288 kts 122°
2026-05-06 12:46 54.68418 -0.56175 23069 ft 288 kts 122°
2026-05-06 12:47 54.67424 -0.53177 23067 ft 288 kts 122°
2026-05-06 12:47 54.66430 -0.50181 23065 ft 288 kts 122°
2026-05-06 12:47 54.65435 -0.47186 23073 ft 288 kts 122°
2026-05-06 12:47 54.64437 -0.44186 23074 ft 287 kts 122°
2026-05-06 12:48 54.63442 -0.41196 23067 ft 287 kts 122°
2026-05-06 12:48 54.62443 -0.38200 23070 ft 287 kts 122°
2026-05-06 12:48 54.61445 -0.35211 23057 ft 287 kts 122°
2026-05-06 12:48 54.60447 -0.32227 23068 ft 287 kts 122°
2026-05-06 12:49 54.59450 -0.29247 23062 ft 287 kts 122°
2026-05-06 12:49 54.58452 -0.26268 23065 ft 287 kts 122°
2026-05-06 12:49 54.57466 -0.23330 23056 ft 287 kts 122°
2026-05-06 12:49 54.56467 -0.20356 23064 ft 287 kts 122°
2026-05-06 12:50 54.55466 -0.17379 23059 ft 287 kts 122°
2026-05-06 12:50 54.54465 -0.14406 23061 ft 286 kts 122°
2026-05-06 12:50 54.53465 -0.11441 23065 ft 286 kts 122°
2026-05-06 12:50 54.52465 -0.08476 23062 ft 286 kts 122°
2026-05-06 12:51 54.51464 -0.05517 23062 ft 286 kts 122°
2026-05-06 12:51 54.50463 -0.02557 23063 ft 286 kts 122°
2026-05-06 12:51 54.49459 0.00406 23061 ft 286 kts 123°
2026-05-06 12:51 54.48456 0.03365 23060 ft 286 kts 123°
2026-05-06 12:52 54.47453 0.06317 23058 ft 286 kts 123°
2026-05-06 12:52 54.46449 0.09270 23055 ft 286 kts 123°
2026-05-06 12:52 54.45444 0.12222 23055 ft 286 kts 123°
2026-05-06 12:52 54.44441 0.15165 23056 ft 286 kts 123°
2026-05-06 12:53 54.43437 0.18110 23052 ft 286 kts 123°
2026-05-06 12:53 54.42431 0.21064 23050 ft 286 kts 123°
2026-05-06 12:53 54.41429 0.24013 23049 ft 286 kts 122°
2026-05-06 12:53 54.40430 0.26957 23052 ft 286 kts 122°
2026-05-06 12:54 54.39432 0.29903 23047 ft 286 kts 122°
2026-05-06 12:54 54.38449 0.32811 23051 ft 285 kts 122°
2026-05-06 12:54 54.37451 0.35760 23050 ft 285 kts 123°
2026-05-06 12:54 54.36421 0.38667 23051 ft 285 kts 125°
2026-05-06 12:55 54.35377 0.41548 23048 ft 285 kts 122°
2026-05-06 12:55 54.34408 0.44518 23043 ft 285 kts 121°
2026-05-06 12:55 54.33412 0.47448 23046 ft 285 kts 124°
2026-05-06 12:55 54.32365 0.50332 23043 ft 285 kts 124°
2026-05-06 12:56 54.31342 0.53244 23046 ft 285 kts 123°
2026-05-06 12:56 54.30340 0.56173 23044 ft 285 kts 123°
2026-05-06 12:56 54.29330 0.59107 23039 ft 286 kts 123°
2026-05-06 12:56 54.28311 0.62030 23044 ft 286 kts 123°
2026-05-06 12:57 54.27305 0.64914 23043 ft 286 kts 123°
2026-05-06 12:57 54.26287 0.67837 23038 ft 286 kts 123°
2026-05-06 12:57 54.25269 0.70762 23035 ft 286 kts 123°
2026-05-06 12:57 54.24249 0.73683 23038 ft 286 kts 123°
2026-05-06 12:58 54.23229 0.76601 23038 ft 286 kts 123°
2026-05-06 12:58 54.22207 0.79522 23040 ft 286 kts 123°
2026-05-06 12:58 54.21184 0.82442 23036 ft 286 kts 123°
2026-05-06 12:58 54.20161 0.85360 23036 ft 286 kts 124°
2026-05-06 12:59 54.19134 0.88282 23032 ft 287 kts 124°
2026-05-06 12:59 54.18107 0.91203 23034 ft 287 kts 124°
2026-05-06 12:59 54.17081 0.94119 23031 ft 287 kts 124°
2026-05-06 12:59 54.16054 0.97036 23033 ft 287 kts 124°
2026-05-06 13:00 54.15025 0.99952 23033 ft 287 kts 124°
2026-05-06 13:00 54.13995 1.02868 23028 ft 287 kts 124°
2026-05-06 13:00 54.12966 1.05778 23026 ft 287 kts 124°
2026-05-06 13:00 54.11932 1.08698 23029 ft 287 kts 124°
2026-05-06 13:01 54.10899 1.11612 23024 ft 287 kts 124°
2026-05-06 13:01 54.09866 1.14522 23023 ft 287 kts 124°
2026-05-06 13:01 54.08832 1.17431 23027 ft 288 kts 124°
2026-05-06 13:01 54.07795 1.20348 23027 ft 288 kts 124°
2026-05-06 13:02 54.06757 1.23262 23027 ft 288 kts 124°
2026-05-06 13:02 54.05733 1.26133 23024 ft 288 kts 124°
2026-05-06 13:02 54.04695 1.29043 23019 ft 287 kts 124°
2026-05-06 13:02 54.03655 1.31951 23022 ft 287 kts 124°
2026-05-06 13:03 54.02616 1.34855 23020 ft 287 kts 124°
2026-05-06 13:03 54.01578 1.37753 23019 ft 287 kts 124°
2026-05-06 13:03 54.00535 1.40659 23018 ft 287 kts 124°
2026-05-06 13:03 53.99495 1.43559 23015 ft 287 kts 124°
2026-05-06 13:04 53.98456 1.46448 23025 ft 287 kts 124°
2026-05-06 13:04 53.97414 1.49342 23021 ft 287 kts 124°
2026-05-06 13:04 53.96372 1.52235 23020 ft 287 kts 124°
2026-05-06 13:04 53.95329 1.55125 23022 ft 287 kts 124°
2026-05-06 13:05 53.94286 1.58014 23016 ft 287 kts 124°
2026-05-06 13:05 53.93245 1.60893 23016 ft 287 kts 124°
2026-05-06 13:05 53.92202 1.63774 23014 ft 286 kts 124°
2026-05-06 13:05 53.91155 1.66662 23012 ft 286 kts 125°
2026-05-06 13:06 53.90112 1.69537 23007 ft 286 kts 124°
2026-05-06 13:06 53.89069 1.72409 23008 ft 286 kts 125°
2026-05-06 13:06 53.88023 1.75284 23005 ft 286 kts 125°
2026-05-06 13:06 53.86977 1.78158 23003 ft 286 kts 125°
2026-05-06 13:07 53.85944 1.80991 23001 ft 286 kts 125°
2026-05-06 13:07 53.84898 1.83857 23001 ft 286 kts 125°
2026-05-06 13:07 53.83851 1.86723 23002 ft 286 kts 125°
2026-05-06 13:07 53.82804 1.89586 23002 ft 286 kts 125°
2026-05-06 13:08 53.81758 1.92442 22999 ft 285 kts 125°
2026-05-06 13:08 53.80711 1.95297 23001 ft 285 kts 125°
2026-05-06 13:08 53.79664 1.98150 22999 ft 285 kts 125°
2026-05-06 13:08 53.78617 2.00999 23000 ft 285 kts 125°
2026-05-06 13:09 53.77569 2.03848 23000 ft 285 kts 125°
2026-05-06 13:09 53.76522 2.06689 22999 ft 285 kts 125°
2026-05-06 13:09 53.75473 2.09535 22997 ft 285 kts 125°
2026-05-06 13:09 53.74441 2.12330 22993 ft 284 kts 125°
2026-05-06 13:10 53.73393 2.15166 22996 ft 284 kts 125°
2026-05-06 13:10 53.72347 2.17992 22994 ft 284 kts 126°
2026-05-06 13:10 53.71296 2.20830 22996 ft 284 kts 126°
2026-05-06 13:10 53.70249 2.23654 22992 ft 284 kts 126°
2026-05-06 13:11 53.69199 2.26481 22997 ft 284 kts 126°
2026-05-06 13:11 53.68151 2.29302 22990 ft 284 kts 126°
2026-05-06 13:11 53.67101 2.32125 22990 ft 284 kts 126°
2026-05-06 13:11 53.66048 2.34950 22988 ft 284 kts 126°
2026-05-06 13:12 53.64996 2.37771 22988 ft 284 kts 126°
2026-05-06 13:12 53.63946 2.40583 22987 ft 284 kts 126°
2026-05-06 13:12 53.62906 2.43367 22987 ft 284 kts 126°
2026-05-06 13:12 53.61854 2.46177 22984 ft 284 kts 126°
2026-05-06 13:13 53.60803 2.48984 22982 ft 284 kts 126°
2026-05-06 13:13 53.59747 2.51799 22986 ft 284 kts 126°
2026-05-06 13:13 53.58691 2.54612 22981 ft 284 kts 126°
2026-05-06 13:13 53.57633 2.57426 22983 ft 284 kts 126°
2026-05-06 13:14 53.56579 2.60228 22984 ft 284 kts 126°
2026-05-06 13:14 53.55524 2.63029 22981 ft 284 kts 126°
2026-05-06 13:14 53.54467 2.65831 22980 ft 283 kts 126°
2026-05-06 13:14 53.53411 2.68629 22981 ft 283 kts 126°
2026-05-06 13:15 53.52353 2.71427 22978 ft 283 kts 126°
2026-05-06 13:15 53.51293 2.74227 22978 ft 283 kts 126°
2026-05-06 13:15 53.50235 2.77021 22980 ft 283 kts 126°
2026-05-06 13:15 53.49177 2.79811 22975 ft 283 kts 126°
2026-05-06 13:16 53.48131 2.82565 22974 ft 283 kts 126°
2026-05-06 13:16 53.47073 2.85349 22974 ft 283 kts 126°
2026-05-06 13:16 53.46013 2.88134 22975 ft 283 kts 126°
2026-05-06 13:16 53.44954 2.90913 22967 ft 283 kts 126°
2026-05-06 13:17 53.43896 2.93689 22970 ft 283 kts 126°
2026-05-06 13:17 53.42836 2.96466 22974 ft 283 kts 126°
2026-05-06 13:17 53.41772 2.99249 22972 ft 283 kts 126°
2026-05-06 13:17 53.40711 3.02021 22969 ft 282 kts 126°
2026-05-06 13:18 53.39651 3.04791 22967 ft 283 kts 127°
2026-05-06 13:18 53.38591 3.07554 22969 ft 282 kts 127°
2026-05-06 13:18 53.37527 3.10325 22968 ft 282 kts 127°
2026-05-06 13:18 53.36460 3.13101 22967 ft 282 kts 127°
2026-05-06 13:19 53.35410 3.15832 22965 ft 282 kts 127°
2026-05-06 13:19 53.34345 3.18597 22965 ft 282 kts 127°
2026-05-06 13:19 53.33279 3.21361 22964 ft 282 kts 127°
2026-05-06 13:19 53.32213 3.24121 22967 ft 282 kts 127°
2026-05-06 13:20 53.31152 3.26868 22967 ft 282 kts 127°
2026-05-06 13:20 53.30081 3.29637 22968 ft 282 kts 127°
2026-05-06 13:20 53.29014 3.32392 22964 ft 282 kts 127°
2026-05-06 13:20 53.27947 3.35143 22962 ft 282 kts 127°
2026-05-06 13:21 53.26880 3.37893 22966 ft 282 kts 127°
2026-05-06 13:21 53.25811 3.40645 22962 ft 282 kts 127°
2026-05-06 13:21 53.24713 3.43348 22964 ft 279 kts 133°
2026-05-06 13:21 53.23447 3.45788 22960 ft 277 kts 136°
2026-05-06 13:22 53.22169 3.48149 22965 ft 277 kts 136°
2026-05-06 13:22 53.20884 3.50555 22968 ft 278 kts 136°
2026-05-06 13:22 53.19607 3.52977 22966 ft 278 kts 136°
2026-05-06 13:22 53.18328 3.55396 22961 ft 278 kts 136°
2026-05-06 13:23 53.17460 3.57029 22964 ft 278 kts 136°
2026-05-06 13:23 53.16175 3.59443 22962 ft 278 kts 136°
2026-05-06 13:23 53.14889 3.61858 22963 ft 278 kts 136°
2026-05-06 13:23 53.13607 3.64268 22953 ft 278 kts 136°
2026-05-06 13:24 53.12323 3.66676 22958 ft 278 kts 136°
2026-05-06 13:24 53.11053 3.69055 22954 ft 278 kts 136°
2026-05-06 13:24 53.09771 3.71455 22953 ft 278 kts 136°
2026-05-06 13:24 53.08483 3.73864 22954 ft 278 kts 136°
2026-05-06 13:25 53.07196 3.76268 22950 ft 277 kts 136°
2026-05-06 13:25 53.05918 3.78654 22950 ft 275 kts 136°
2026-05-06 13:25 53.04644 3.81030 22948 ft 274 kts 136°
2026-05-06 13:25 53.03375 3.83394 22946 ft 273 kts 136°
2026-05-06 13:26 53.02110 3.85748 22942 ft 273 kts 136°
2026-05-06 13:26 53.00844 3.88103 22942 ft 272 kts 136°
2026-05-06 13:26 52.99581 3.90449 22938 ft 272 kts 136°
2026-05-06 13:26 52.98319 3.92791 22939 ft 272 kts 136°
2026-05-06 13:27 52.97058 3.95128 22934 ft 272 kts 136°
2026-05-06 13:27 52.95794 3.97469 22934 ft 272 kts 136°
2026-05-06 13:27 52.94534 3.99801 22932 ft 272 kts 136°
2026-05-06 13:27 52.93288 4.02106 22932 ft 272 kts 136°
2026-05-06 13:28 52.92024 4.04439 22927 ft 272 kts 136°
2026-05-06 13:28 52.90763 4.06767 22927 ft 272 kts 136°
2026-05-06 13:28 52.89500 4.09096 22931 ft 272 kts 136°
2026-05-06 13:28 52.88237 4.11422 22923 ft 272 kts 136°
2026-05-06 13:29 52.86972 4.13749 22923 ft 272 kts 136°
2026-05-06 13:29 52.85706 4.16076 22921 ft 272 kts 136°
2026-05-06 13:29 52.84443 4.18397 22920 ft 271 kts 136°
2026-05-06 13:29 52.83180 4.20714 22917 ft 271 kts 136°
2026-05-06 13:30 52.81914 4.23036 22917 ft 271 kts 136°
2026-05-06 13:30 52.80649 4.25351 22915 ft 271 kts 136°
2026-05-06 13:30 52.79386 4.27663 22918 ft 271 kts 136°
2026-05-06 13:30 52.78120 4.29977 22914 ft 271 kts 136°
2026-05-06 13:31 52.76853 4.32290 22911 ft 271 kts 136°
2026-05-06 13:31 52.75587 4.34600 22912 ft 271 kts 136°
2026-05-06 13:31 52.74318 4.36911 22907 ft 271 kts 136°
2026-05-06 13:31 52.73042 4.39203 22909 ft 271 kts 136°
2026-05-06 13:32 52.71778 4.41460 22910 ft 271 kts 136°
2026-05-06 13:32 52.70505 4.43740 22909 ft 271 kts 136°
2026-05-06 13:32 52.69231 4.46025 22906 ft 270 kts 136°
2026-05-06 13:32 52.67956 4.48308 22907 ft 270 kts 136°
2026-05-06 13:33 52.66680 4.50589 22908 ft 270 kts 136°
2026-05-06 13:33 52.65402 4.52870 22902 ft 270 kts 136°
2026-05-06 13:33 52.64127 4.55145 22903 ft 270 kts 136°
2026-05-06 13:33 52.62853 4.57417 22901 ft 270 kts 136°
2026-05-06 13:34 52.61594 4.59662 22895 ft 270 kts 136°
2026-05-06 13:34 52.60298 4.61966 22894 ft 270 kts 136°
2026-05-06 13:34 52.59036 4.64211 22887 ft 270 kts 136°
2026-05-06 13:34 52.57758 4.66481 22881 ft 270 kts 136°
2026-05-06 13:35 52.56481 4.68749 22882 ft 270 kts 136°
2026-05-06 13:35 52.55199 4.71020 22885 ft 270 kts 136°
2026-05-06 13:35 52.53918 4.73289 22886 ft 270 kts 136°
2026-05-06 13:35 52.52641 4.75550 22889 ft 270 kts 136°
2026-05-06 13:36 52.51361 4.77814 22877 ft 270 kts 136°
2026-05-06 13:36 52.50080 4.80077 22879 ft 270 kts 136°
2026-05-06 13:36 52.48796 4.82343 22877 ft 270 kts 136°
2026-05-06 13:36 52.47516 4.84600 22878 ft 270 kts 136°
2026-05-06 13:37 52.46250 4.86830 22876 ft 270 kts 136°
2026-05-06 13:37 52.44967 4.89089 22878 ft 270 kts 136°
2026-05-06 13:37 52.43685 4.91344 22876 ft 270 kts 136°
2026-05-06 13:37 52.42405 4.93593 22875 ft 270 kts 136°
2026-05-06 13:38 52.41121 4.95845 22874 ft 270 kts 136°
2026-05-06 13:38 52.39837 4.98098 22872 ft 270 kts 136°
2026-05-06 13:38 52.38553 5.00347 22872 ft 270 kts 136°
2026-05-06 13:38 52.37269 5.02595 22874 ft 270 kts 136°
2026-05-06 13:39 52.35986 5.04840 22875 ft 270 kts 136°
2026-05-06 13:39 52.34703 5.07080 22874 ft 270 kts 136°
2026-05-06 13:39 52.33520 5.09456 22877 ft 272 kts 124°
2026-05-06 13:39 52.32725 5.12267 22879 ft 274 kts 113°
2026-05-06 13:40 52.32059 5.15189 22877 ft 274 kts 113°
2026-05-06 13:40 52.31381 5.18105 22876 ft 274 kts 114°
2026-05-06 13:40 52.30686 5.21006 22877 ft 275 kts 114°
2026-05-06 13:40 52.29987 5.23918 22879 ft 275 kts 114°
2026-05-06 13:41 52.29292 5.26833 22875 ft 275 kts 114°
2026-05-06 13:41 52.28598 5.29750 22878 ft 276 kts 114°
2026-05-06 13:41 52.27901 5.32667 22879 ft 275 kts 114°
2026-05-06 13:41 52.27203 5.35580 22874 ft 275 kts 114°
2026-05-06 13:42 52.26507 5.38484 22877 ft 275 kts 114°
2026-05-06 13:42 52.25820 5.41346 22877 ft 274 kts 114°
2026-05-06 13:42 52.25114 5.44285 22873 ft 274 kts 114°
2026-05-06 13:42 52.24426 5.47143 22875 ft 274 kts 114°
2026-05-06 13:43 52.23728 5.50038 22874 ft 274 kts 114°
2026-05-06 13:43 52.23031 5.52930 22874 ft 274 kts 114°
2026-05-06 13:43 52.22332 5.55821 22875 ft 274 kts 114°
2026-05-06 13:43 52.21632 5.58716 22871 ft 274 kts 114°
2026-05-06 13:44 52.20933 5.61599 22874 ft 274 kts 114°
2026-05-06 13:44 52.20233 5.64485 22874 ft 274 kts 114°
2026-05-06 13:44 52.19531 5.67376 22873 ft 274 kts 114°
2026-05-06 13:44 52.18829 5.70261 22876 ft 274 kts 114°
2026-05-06 13:45 52.18125 5.73150 22875 ft 274 kts 114°
2026-05-06 13:45 52.16714 5.78931 22874 ft 275 kts 114°
2026-05-06 13:45 52.16007 5.81823 22875 ft 275 kts 114°
2026-05-06 13:46 52.15299 5.84718 22874 ft 275 kts 114°
2026-05-06 13:46 52.14589 5.87610 22873 ft 275 kts 114°
2026-05-06 13:46 52.13881 5.90494 22877 ft 275 kts 114°
2026-05-06 13:46 52.13168 5.93397 22875 ft 275 kts 114°
2026-05-06 13:47 52.12465 5.96251 22872 ft 276 kts 114°
2026-05-06 13:47 52.11750 5.99156 22876 ft 276 kts 114°
2026-05-06 13:47 52.11034 6.02055 22876 ft 276 kts 114°
2026-05-06 13:47 52.10317 6.04955 22874 ft 276 kts 114°
2026-05-06 13:48 52.09646 6.07889 22872 ft 277 kts 107°
2026-05-06 13:48 52.09290 6.10962 22876 ft 276 kts 100°
2026-05-06 13:48 52.08990 6.14048 22875 ft 276 kts 100°
2026-05-06 13:48 52.08677 6.17127 22874 ft 277 kts 101°
2026-05-06 13:49 52.08352 6.20209 22878 ft 277 kts 101°
2026-05-06 13:49 52.08029 6.23292 22873 ft 277 kts 101°
2026-05-06 13:49 52.07708 6.26376 22872 ft 277 kts 101°
2026-05-06 13:49 52.07386 6.29458 22873 ft 277 kts 101°
2026-05-06 13:50 52.07062 6.32550 22871 ft 277 kts 101°
2026-05-06 13:50 52.06736 6.35637 22867 ft 277 kts 101°
2026-05-06 13:50 52.06411 6.38723 22867 ft 277 kts 101°
2026-05-06 13:50 52.06084 6.41808 22863 ft 276 kts 101°
2026-05-06 13:51 52.05763 6.44841 22862 ft 276 kts 101°
2026-05-06 13:51 52.05436 6.47922 22862 ft 276 kts 101°
2026-05-06 13:51 52.05109 6.50985 22860 ft 276 kts 101°
2026-05-06 13:51 52.04780 6.54061 22860 ft 276 kts 101°
2026-05-06 13:52 52.04451 6.57133 22859 ft 276 kts 101°
2026-05-06 13:52 52.04009 6.60139 22851 ft 274 kts 111°
2026-05-06 13:52 52.03126 6.62864 22853 ft 272 kts 125°
2026-05-06 13:52 52.02073 6.65399 22856 ft 272 kts 124°
2026-05-06 13:53 52.01112 6.68064 22852 ft 273 kts 119°
2026-05-06 13:53 52.00252 6.70814 22854 ft 273 kts 118°
2026-05-06 13:53 51.99382 6.73566 22864 ft 275 kts 119°
2026-05-06 13:53 51.98472 6.76316 22867 ft 279 kts 120°
2026-05-06 13:54 51.97547 6.79097 22866 ft 282 kts 119°
2026-05-06 13:54 51.96620 6.81916 22865 ft 284 kts 119°
2026-05-06 13:54 51.95701 6.84720 22855 ft 285 kts 120°
2026-05-06 13:54 51.94769 6.87551 22849 ft 283 kts 120°
2026-05-06 13:55 51.93843 6.90353 22842 ft 280 kts 120°
2026-05-06 13:55 51.92926 6.93127 22840 ft 279 kts 120°
2026-05-06 13:55 51.92010 6.95897 22841 ft 278 kts 120°
2026-05-06 13:55 51.91100 6.98645 22838 ft 276 kts 120°
2026-05-06 13:56 51.90194 7.01379 22837 ft 275 kts 120°
2026-05-06 13:56 51.89285 7.04118 22837 ft 275 kts 120°
2026-05-06 13:56 51.88380 7.06840 22839 ft 275 kts 120°
2026-05-06 13:56 51.87486 7.09529 22837 ft 274 kts 120°
2026-05-06 13:57 51.86582 7.12246 22833 ft 274 kts 120°
2026-05-06 13:57 51.85677 7.14960 22832 ft 274 kts 120°
2026-05-06 13:57 51.84769 7.17681 22834 ft 274 kts 120°
2026-05-06 13:57 51.83863 7.20392 22834 ft 274 kts 120°
2026-05-06 13:58 51.82958 7.23100 22835 ft 274 kts 120°
2026-05-06 13:58 51.82049 7.25815 22832 ft 274 kts 120°
2026-05-06 13:58 51.81143 7.28519 22830 ft 274 kts 120°
2026-05-06 13:58 51.80246 7.31193 22830 ft 274 kts 120°
2026-05-06 13:59 51.79337 7.33898 22830 ft 274 kts 120°
2026-05-06 13:59 51.78418 7.36634 22827 ft 273 kts 120°
2026-05-06 13:59 51.77523 7.39290 22828 ft 273 kts 120°
2026-05-06 13:59 51.76613 7.41993 22828 ft 273 kts 120°
2026-05-06 14:00 51.75703 7.44688 22827 ft 273 kts 120°
2026-05-06 14:00 51.74794 7.47382 22828 ft 273 kts 120°
2026-05-06 14:00 51.73883 7.50077 22828 ft 273 kts 120°
2026-05-06 14:00 51.72972 7.52769 22828 ft 273 kts 120°
2026-05-06 14:01 51.72058 7.55446 22828 ft 272 kts 122°
2026-05-06 14:01 51.70901 7.57830 22826 ft 270 kts 137°
2026-05-06 14:01 51.69394 7.59600 22822 ft 267 kts 154°
2026-05-06 14:01 51.67678 7.60693 22824 ft 265 kts 163°
2026-05-06 14:02 51.65920 7.61599 22825 ft 265 kts 163°
2026-05-06 14:02 51.64163 7.62570 22615 ft 269 kts 162°
2026-05-06 14:02 51.62416 7.63585 22221 ft 272 kts 162°
2026-05-06 14:02 51.60629 7.64619 21816 ft 273 kts 162°
2026-05-06 14:03 51.58832 7.65639 21415 ft 274 kts 162°
2026-05-06 14:03 51.57036 7.66656 21025 ft 274 kts 162°
2026-05-06 14:03 51.55240 7.67677 20641 ft 273 kts 162°
2026-05-06 14:03 51.53450 7.68696 20261 ft 272 kts 162°
2026-05-06 14:04 51.51662 7.69711 19894 ft 272 kts 162°
2026-05-06 14:04 51.49875 7.70724 19519 ft 271 kts 162°
2026-05-06 14:04 51.48102 7.71729 19155 ft 270 kts 163°
2026-05-06 14:04 51.46330 7.72733 18795 ft 270 kts 163°
2026-05-06 14:05 51.44566 7.73730 18441 ft 269 kts 163°
2026-05-06 14:05 51.42806 7.74726 18075 ft 268 kts 163°
2026-05-06 14:05 51.41072 7.75705 17671 ft 267 kts 163°
2026-05-06 14:05 51.39322 7.76693 17266 ft 266 kts 163°
2026-05-06 14:06 51.37579 7.77676 16870 ft 265 kts 163°
2026-05-06 14:06 51.35839 7.78658 16472 ft 264 kts 163°
2026-05-06 14:06 51.34107 7.79635 16085 ft 263 kts 164°
2026-05-06 14:06 51.32361 7.80471 15698 ft 259 kts 173°
2026-05-06 14:07 51.30576 7.80568 15314 ft 255 kts 188°
2026-05-06 14:07 51.28877 7.79857 14936 ft 252 kts 204°
2026-05-06 14:07 51.27835 7.79050 14694 ft 250 kts 209°
2026-05-06 14:07 51.26275 7.77815 14326 ft 250 kts 205°
2026-05-06 14:08 51.24622 7.76916 13967 ft 251 kts 197°
2026-05-06 14:08 51.22910 7.76322 13602 ft 251 kts 194°
2026-05-06 14:08 51.21197 7.75743 13204 ft 251 kts 195°
2026-05-06 14:08 51.19520 7.75097 12810 ft 251 kts 196°
2026-05-06 14:09 51.17827 7.74426 12413 ft 250 kts 196°
2026-05-06 14:09 51.16133 7.73773 12024 ft 250 kts 195°
2026-05-06 14:09 51.14448 7.73133 11642 ft 249 kts 195°
2026-05-06 14:09 51.12764 7.72490 11276 ft 249 kts 195°
2026-05-06 14:10 51.11067 7.71840 10897 ft 251 kts 195°
2026-05-06 14:10 51.09373 7.71193 10529 ft 249 kts 195°
2026-05-06 14:10 51.07699 7.70554 10145 ft 247 kts 195°
2026-05-06 14:10 51.06041 7.69921 9784 ft 243 kts 195°
2026-05-06 14:11 51.04406 7.69298 9397 ft 240 kts 195°
2026-05-06 14:11 51.02788 7.68681 9000 ft 238 kts 195°
2026-05-06 14:11 51.01177 7.68068 8605 ft 237 kts 195°
2026-05-06 14:11 50.99596 7.67466 8224 ft 236 kts 195°
2026-05-06 14:12 50.97993 7.66857 7832 ft 236 kts 195°
2026-05-06 14:12 50.96396 7.66250 7460 ft 236 kts 195°
2026-05-06 14:12 50.94792 7.65641 7083 ft 236 kts 195°
2026-05-06 14:12 50.93205 7.65039 6880 ft 229 kts 195°
2026-05-06 14:13 50.91711 7.64475 6979 ft 215 kts 195°
2026-05-06 14:13 50.90270 7.63930 6983 ft 210 kts 195°
2026-05-06 14:13 50.88853 7.63391 6984 ft 209 kts 195°
2026-05-06 14:13 50.87406 7.62841 6659 ft 219 kts 195°
2026-05-06 14:14 50.85890 7.62266 6299 ft 227 kts 195°
2026-05-06 14:14 50.84336 7.61679 5916 ft 231 kts 195°
2026-05-06 14:14 50.82761 7.61085 5542 ft 235 kts 195°
2026-05-06 14:14 50.81158 7.60480 5163 ft 240 kts 195°
2026-05-06 14:15 50.79526 7.59865 4772 ft 242 kts 195°
2026-05-06 14:15 50.77986 7.58933 4149 ft 240 kts 209°
2026-05-06 14:15 50.76537 7.57728 3862 ft 233 kts 213°
2026-05-06 14:15 50.75299 7.56079 3405 ft 234 kts 229°
2026-05-06 14:16 50.74239 7.54124 3018 ft 234 kts 232°
2026-05-06 14:16 50.73235 7.52189 3009 ft 223 kts 233°
2026-05-06 14:16 50.72260 7.50337 3003 ft 216 kts 233°
2026-05-06 14:16 50.71328 7.48571 3000 ft 209 kts 233°
2026-05-06 14:17 50.70390 7.46804 2999 ft 205 kts 233°
2026-05-06 14:17 50.69562 7.45058 2987 ft 198 kts 244°
2026-05-06 14:17 50.69261 7.43026 2996 ft 189 kts 277°
2026-05-06 14:17 50.69626 7.41068 2999 ft 185 kts 292°
2026-05-06 14:18 50.70104 7.39185 3004 ft 185 kts 293°
2026-05-06 14:18 50.70592 7.37311 2999 ft 182 kts 295°
2026-05-06 14:18 50.71329 7.35750 2993 ft 177 kts 321°
2026-05-06 14:18 50.72396 7.34885 3046 ft 168 kts 336°
2026-05-06 14:19 50.73345 7.33956 3130 ft 155 kts 324°
2026-05-06 14:19 50.74154 7.33065 3105 ft 125 kts 322°
2026-05-06 14:19 50.74742 7.32268 3082 ft 102 kts 316°
2026-05-06 14:19 50.75168 7.31547 3068 ft 81 kts 312°
2026-05-06 14:20 50.75553 7.30899 2994 ft 82 kts 318°
2026-05-06 14:20 50.75969 7.30317 2994 ft 80 kts 319°
2026-05-06 14:20 50.76401 7.29750 2945 ft 81 kts 319°
2026-05-06 14:20 50.76815 7.29150 2841 ft 82 kts 315°
2026-05-06 14:21 50.77230 7.28538 2675 ft 83 kts 316°
2026-05-06 14:21 50.77651 7.27921 2512 ft 82 kts 320°
2026-05-06 14:21 50.78078 7.27326 2321 ft 81 kts 315°
2026-05-06 14:21 50.78475 7.26721 2221 ft 78 kts 317°
2026-05-06 14:22 50.78880 7.26185 2255 ft 77 kts 322°
2026-05-06 14:22 50.79303 7.25588 2140 ft 86 kts 313°
2026-05-06 14:22 50.79715 7.24925 2021 ft 81 kts 317°
2026-05-06 14:22 50.80130 7.24315 1823 ft 81 kts 315°
2026-05-06 14:23 50.80517 7.23727 1705 ft 79 kts 316°
2026-05-06 14:23 50.80923 7.23162 1612 ft 77 kts 321°
2026-05-06 14:23 50.81326 7.22609 1541 ft 77 kts 319°
2026-05-06 14:23 50.81723 7.22025 1457 ft 79 kts 313°
2026-05-06 14:24 50.82131 7.21421 1328 ft 83 kts 316°
2026-05-06 14:24 50.82567 7.20796 1186 ft 87 kts 318°
2026-05-06 14:24 50.83022 7.20209 1069 ft 83 kts 320°
2026-05-06 14:24 50.83441 7.19619 987 ft 79 kts 317°
2026-05-06 14:25 50.83849 7.19053 878 ft 78 kts 315°
2026-05-06 14:25 50.84231 7.18466 761 ft 77 kts 312°
2026-05-06 14:25 50.84628 7.17884 639 ft 78 kts 314°
2026-05-06 14:25 50.85019 7.17281 507 ft 80 kts 316°
2026-05-06 14:26 50.85426 7.16696 377 ft 80 kts 317°
2026-05-06 14:26 50.85803 7.16160 304 ft 63 kts 317°
2026-05-06 14:26 50.86086 7.15747 291 ft 48 kts 316°
2026-05-06 14:26 50.86305 7.15426 284 ft 39 kts 318°
2026-05-06 14:27 50.86480 7.15174 277 ft 32 kts 319°
2026-05-06 14:27 50.86642 7.14939 269 ft 31 kts 317°
2026-05-06 14:27 50.86783 7.14728 263 ft 25 kts 313°
2026-05-06 14:27 50.86865 7.14510 257 ft 21 kts 286°
2026-05-06 14:28 50.86889 7.14310 254 ft 17 kts 279°
2026-05-06 14:28 50.86895 7.14246 252 ft 0 kts 279°
2026-05-06 14:31 50.86895 7.14247 252 ft 0 kts 279°
2026-05-06 14:32 50.86895 7.14251 252 ft 0 kts 279°
2026-05-06 14:32 50.86909 7.14107 251 ft 24 kts 283°
2026-05-06 14:32 50.86856 7.14026 251 ft 18 kts 143°
2026-05-06 14:32 50.86740 7.14125 251 ft 18 kts 213°
2026-05-06 14:33 50.86676 7.13946 251 ft 19 kts 242°
2026-05-06 14:33 50.86615 7.13735 246 ft 23 kts 244°
2026-05-06 14:33 50.86543 7.13501 245 ft 24 kts 244°
2026-05-06 14:33 50.86498 7.13303 245 ft 15 kts 288°
2026-05-06 14:34 50.86591 7.13151 243 ft 22 kts 316°
2026-05-06 14:34 50.86715 7.12969 239 ft 26 kts 317°
2026-05-06 14:34 50.86856 7.12766 235 ft 29 kts 317°
2026-05-06 14:34 50.86965 7.12611 232 ft 12 kts 317°
2026-05-06 14:35 50.87022 7.12629 231 ft 13 kts 50°
2026-05-06 14:35 50.87064 7.12701 231 ft 7 kts 47°
2026-05-06 14:35 50.87087 7.12718 231 ft 0 kts 340°
2026-05-06 14:41 50.87086 7.12718 231 ft 0 kts 340°